Year,Month,Day,Hour,Minute,Value (Times are PST for windgust in km/hr)
2012,03,10,00,00,1.60
2012,03,10,00,01,1.60
2012,03,10,00,03,1.60
2012,03,10,00,04,1.60
2012,03,10,00,05,1.60
2012,03,10,00,26,3.20
2012,03,10,00,27,3.20
2012,03,10,00,28,3.20
2012,03,10,00,29,3.20
2012,03,10,00,30,3.20
2012,03,10,00,31,1.60
2012,03,10,00,37,1.60
2012,03,10,00,38,1.60
2012,03,10,00,52,1.60
2012,03,10,00,54,1.60
2012,03,10,00,55,3.20
2012,03,10,00,56,1.60
2012,03,10,01,01,1.60
2012,03,10,01,02,1.60
2012,03,10,01,05,1.60
2012,03,10,01,06,1.60
2012,03,10,01,09,1.60
2012,03,10,01,10,1.60
2012,03,10,01,11,1.60
2012,03,10,01,12,1.60
2012,03,10,01,13,3.20
2012,03,10,01,14,3.20
2012,03,10,01,15,3.20
2012,03,10,01,16,3.20
2012,03,10,01,17,1.60
2012,03,10,01,18,3.20
2012,03,10,01,19,3.20
2012,03,10,01,20,1.60
2012,03,10,01,21,1.60
2012,03,10,01,26,1.60
2012,03,10,01,27,1.60
2012,03,10,01,28,3.20
2012,03,10,01,29,3.20
2012,03,10,01,30,3.20
2012,03,10,01,31,3.20
2012,03,10,01,32,3.20
2012,03,10,01,33,3.20
2012,03,10,01,34,3.20
2012,03,10,01,35,3.20
2012,03,10,01,36,3.20
2012,03,10,01,37,3.20
2012,03,10,01,38,4.80
2012,03,10,01,39,3.20
2012,03,10,01,40,1.60
2012,03,10,01,41,3.20
2012,03,10,01,42,3.20
2012,03,10,01,43,1.60
2012,03,10,01,51,1.60
2012,03,10,01,55,3.20
2012,03,10,01,56,1.60
2012,03,10,01,57,1.60
2012,03,10,02,23,1.60
2012,03,10,02,29,1.60
2012,03,10,02,30,1.60
2012,03,10,02,36,1.60
2012,03,10,02,41,1.60
2012,03,10,02,42,1.60
2012,03,10,02,51,1.60
2012,03,10,02,52,1.60
2012,03,10,02,54,1.60
2012,03,10,02,55,1.60
2012,03,10,02,56,3.20
2012,03,10,02,57,1.60
2012,03,10,03,18,3.20
2012,03,10,03,19,3.20
2012,03,10,03,31,1.60
2012,03,10,03,32,1.60
2012,03,10,03,34,1.60
2012,03,10,03,35,3.20
2012,03,10,03,52,1.60
2012,03,10,03,55,3.20
2012,03,10,03,57,1.60
2012,03,10,03,58,1.60
2012,03,10,04,01,3.20
2012,03,10,04,02,3.20
2012,03,10,04,03,3.20
2012,03,10,04,04,1.60
2012,03,10,04,05,1.60
2012,03,10,04,06,1.60
2012,03,10,04,07,1.60
2012,03,10,04,08,3.20
2012,03,10,04,09,4.80
2012,03,10,04,10,4.80
2012,03,10,04,11,1.60
2012,03,10,04,12,3.20
2012,03,10,04,13,1.60
2012,03,10,04,14,1.60
2012,03,10,04,15,1.60
2012,03,10,04,16,1.60
2012,03,10,04,18,1.60
2012,03,10,04,19,3.20
2012,03,10,04,20,1.60
2012,03,10,04,35,1.60
2012,03,10,04,36,1.60
2012,03,10,04,38,1.60
2012,03,10,04,44,3.20
2012,03,10,04,45,3.20
2012,03,10,04,51,1.60
2012,03,10,04,52,3.20
2012,03,10,04,53,1.60
2012,03,10,04,55,1.60
2012,03,10,04,56,1.60
2012,03,10,04,57,1.60
2012,03,10,04,59,3.20
2012,03,10,05,03,1.60
2012,03,10,05,04,1.60
2012,03,10,05,12,1.60
2012,03,10,05,17,1.60
2012,03,10,05,18,1.60
2012,03,10,05,19,3.20
2012,03,10,05,20,1.60
2012,03,10,05,21,1.60
2012,03,10,05,22,3.20
2012,03,10,05,23,1.60
2012,03,10,05,25,1.60
2012,03,10,05,26,1.60
2012,03,10,05,27,1.60
2012,03,10,05,32,3.20
2012,03,10,05,33,4.80
2012,03,10,05,34,4.80
2012,03,10,05,35,4.80
2012,03,10,05,36,3.20
2012,03,10,05,43,1.60
2012,03,10,05,44,1.60
2012,03,10,05,45,1.60
2012,03,10,06,07,1.60
2012,03,10,06,08,4.80
2012,03,10,06,09,1.60
2012,03,10,06,22,1.60
2012,03,10,06,23,3.20
2012,03,10,06,24,3.20
2012,03,10,06,25,1.60
2012,03,10,06,27,1.60
2012,03,10,06,28,1.60
2012,03,10,06,31,1.60
2012,03,10,06,36,1.60
2012,03,10,06,37,1.60
2012,03,10,06,38,1.60
2012,03,10,06,39,1.60
2012,03,10,06,40,1.60
2012,03,10,06,41,1.60
2012,03,10,06,57,3.20
2012,03,10,06,58,3.20
2012,03,10,06,59,1.60
2012,03,10,07,00,1.60
2012,03,10,07,06,1.60
2012,03,10,07,07,1.60
2012,03,10,07,11,1.60
2012,03,10,07,12,3.20
2012,03,10,07,13,1.60
2012,03,10,07,14,1.60
2012,03,10,07,15,1.60
2012,03,10,07,16,1.60
2012,03,10,07,17,3.20
2012,03,10,07,18,3.20
2012,03,10,07,20,4.80
2012,03,10,07,21,4.80
2012,03,10,07,22,3.20
2012,03,10,07,23,1.60
2012,03,10,07,26,1.60
2012,03,10,07,27,1.60
2012,03,10,07,28,1.60
2012,03,10,07,29,1.60
2012,03,10,07,31,3.20
2012,03,10,07,32,3.20
2012,03,10,07,33,1.60
2012,03,10,07,34,3.20
2012,03,10,07,35,1.60
2012,03,10,07,44,3.20
2012,03,10,07,45,1.60
2012,03,10,07,46,1.60
2012,03,10,07,47,4.80
2012,03,10,07,48,3.20
2012,03,10,07,49,4.80
2012,03,10,07,50,3.20
2012,03,10,07,51,3.20
2012,03,10,07,52,1.60
2012,03,10,07,53,3.20
2012,03,10,07,54,1.60
2012,03,10,07,55,4.80
2012,03,10,07,56,9.60
2012,03,10,07,57,3.20
2012,03,10,07,58,9.60
2012,03,10,07,59,9.60
2012,03,10,08,00,4.80
2012,03,10,08,01,17.70
2012,03,10,08,02,14.50
2012,03,10,08,03,8.10
2012,03,10,08,04,11.30
2012,03,10,08,05,4.80
2012,03,10,08,06,6.40
2012,03,10,08,07,6.40
2012,03,10,08,08,1.60
2012,03,10,08,09,1.60
2012,03,10,08,10,4.80
2012,03,10,08,11,4.80
2012,03,10,08,12,8.10
2012,03,10,08,13,4.80
2012,03,10,08,14,8.10
2012,03,10,08,15,6.40
2012,03,10,08,16,9.60
2012,03,10,08,17,6.40
2012,03,10,08,18,8.10
2012,03,10,08,19,8.10
2012,03,10,08,20,9.60
2012,03,10,08,21,8.10
2012,03,10,08,22,9.60
2012,03,10,08,23,9.60
2012,03,10,08,24,8.10
2012,03,10,08,25,4.80
2012,03,10,08,26,6.40
2012,03,10,08,27,9.60
2012,03,10,08,28,6.40
2012,03,10,08,29,6.40
2012,03,10,08,30,6.40
2012,03,10,08,31,6.40
2012,03,10,08,32,3.20
2012,03,10,08,33,12.90
2012,03,10,08,34,9.60
2012,03,10,08,35,9.60
2012,03,10,08,36,9.60
2012,03,10,08,37,11.30
2012,03,10,08,38,8.10
2012,03,10,08,39,11.30
2012,03,10,08,40,8.10
2012,03,10,08,41,16.10
2012,03,10,08,42,11.30
2012,03,10,08,43,6.40
2012,03,10,08,44,6.40
2012,03,10,08,45,6.40
2012,03,10,08,48,1.60
2012,03,10,08,49,1.60
2012,03,10,08,50,3.20
2012,03,10,08,51,3.20
2012,03,10,08,52,3.20
2012,03,10,08,53,3.20
2012,03,10,08,54,1.60
2012,03,10,08,55,1.60
2012,03,10,08,56,3.20
2012,03,10,08,57,3.20
2012,03,10,08,59,1.60
2012,03,10,09,01,1.60
2012,03,10,09,02,3.20
2012,03,10,09,03,1.60
2012,03,10,09,07,1.60
2012,03,10,09,11,1.60
2012,03,10,09,13,1.60
2012,03,10,09,16,1.60
2012,03,10,09,17,1.60
2012,03,10,09,20,1.60
2012,03,10,09,21,1.60
2012,03,10,09,22,4.80
2012,03,10,09,23,3.20
2012,03,10,09,24,1.60
2012,03,10,09,26,6.40
2012,03,10,09,27,6.40
2012,03,10,09,28,9.60
2012,03,10,09,29,9.60
2012,03,10,09,30,8.10
2012,03,10,09,31,3.20
2012,03,10,09,32,3.20
2012,03,10,09,33,1.60
2012,03,10,09,34,1.60
2012,03,10,09,35,3.20
2012,03,10,09,36,1.60
2012,03,10,09,38,4.80
2012,03,10,09,39,1.60
2012,03,10,09,41,6.40
2012,03,10,09,42,8.10
2012,03,10,09,43,4.80
2012,03,10,09,44,4.80
2012,03,10,09,45,1.60
2012,03,10,09,46,1.60
2012,03,10,09,47,1.60
2012,03,10,09,48,1.60
2012,03,10,09,49,4.80
2012,03,10,09,50,6.40
2012,03,10,09,51,6.40
2012,03,10,09,52,9.60
2012,03,10,09,53,9.60
2012,03,10,09,54,17.70
2012,03,10,09,55,11.30
2012,03,10,09,56,8.10
2012,03,10,09,57,4.80
2012,03,10,09,58,4.80
2012,03,10,09,59,6.40
2012,03,10,10,00,8.10
2012,03,10,10,01,8.10
2012,03,10,10,02,6.40
2012,03,10,10,03,4.80
2012,03,10,10,04,3.20
2012,03,10,10,05,4.80
2012,03,10,10,06,4.80
2012,03,10,10,07,11.30
2012,03,10,10,08,9.60
2012,03,10,10,09,1.60
2012,03,10,10,12,1.60
2012,03,10,10,13,1.60
2012,03,10,10,14,3.20
2012,03,10,10,15,4.80
2012,03,10,10,16,6.40
2012,03,10,10,17,3.20
2012,03,10,10,18,3.20
2012,03,10,10,19,6.40
2012,03,10,10,20,9.60
2012,03,10,10,21,6.40
2012,03,10,10,22,1.60
2012,03,10,10,23,1.60
2012,03,10,10,24,3.20
2012,03,10,10,25,4.80
2012,03,10,10,26,4.80
2012,03,10,10,27,4.80
2012,03,10,10,28,4.80
2012,03,10,10,29,1.60
2012,03,10,10,30,3.20
2012,03,10,10,31,3.20
2012,03,10,10,32,3.20
2012,03,10,10,33,4.80
2012,03,10,10,35,6.40
2012,03,10,10,36,4.80
2012,03,10,10,37,3.20
2012,03,10,10,38,4.80
2012,03,10,10,39,1.60
2012,03,10,10,40,4.80
2012,03,10,10,41,6.40
2012,03,10,10,42,4.80
2012,03,10,10,43,6.40
2012,03,10,10,44,8.10
2012,03,10,10,45,4.80
2012,03,10,10,46,3.20
2012,03,10,10,47,3.20
2012,03,10,10,48,16.10
2012,03,10,10,49,16.10
2012,03,10,10,50,11.30
2012,03,10,10,51,8.10
2012,03,10,10,52,11.30
2012,03,10,10,53,11.30
2012,03,10,10,54,16.10
2012,03,10,10,55,9.60
2012,03,10,10,56,9.60
2012,03,10,10,57,11.30
2012,03,10,10,58,11.30
2012,03,10,10,59,14.50
2012,03,10,11,00,8.10
2012,03,10,11,01,4.80
2012,03,10,11,02,4.80
2012,03,10,11,03,3.20
2012,03,10,11,04,3.20
2012,03,10,11,05,9.60
2012,03,10,11,06,11.30
2012,03,10,11,07,11.30
2012,03,10,11,08,9.60
2012,03,10,11,09,8.10
2012,03,10,11,10,9.60
2012,03,10,11,11,9.60
2012,03,10,11,12,14.50
2012,03,10,11,13,9.60
2012,03,10,11,14,6.40
2012,03,10,11,15,6.40
2012,03,10,11,16,3.20
2012,03,10,11,17,4.80
2012,03,10,11,18,4.80
2012,03,10,11,19,4.80
2012,03,10,11,20,3.20
2012,03,10,11,21,4.80
2012,03,10,11,22,4.80
2012,03,10,11,23,3.20
2012,03,10,11,24,4.80
2012,03,10,11,25,3.20
2012,03,10,11,26,6.40
2012,03,10,11,27,9.60
2012,03,10,11,28,8.10
2012,03,10,11,29,4.80
2012,03,10,11,30,8.10
2012,03,10,11,31,8.10
2012,03,10,11,32,4.80
2012,03,10,11,33,16.10
2012,03,10,11,34,14.50
2012,03,10,11,35,17.70
2012,03,10,11,36,9.60
2012,03,10,11,37,8.10
2012,03,10,11,38,6.40
2012,03,10,11,39,14.50
2012,03,10,11,40,16.10
2012,03,10,11,41,16.10
2012,03,10,11,42,12.90
2012,03,10,11,43,8.10
2012,03,10,11,44,6.40
2012,03,10,11,45,4.80
2012,03,10,11,46,16.10
2012,03,10,11,47,16.10
2012,03,10,11,48,11.30
2012,03,10,11,49,6.40
2012,03,10,11,50,16.10
2012,03,10,11,51,12.90
2012,03,10,11,52,11.30
2012,03,10,11,53,6.40
2012,03,10,11,54,9.60
2012,03,10,11,55,8.10
2012,03,10,11,56,6.40
2012,03,10,11,57,4.80
2012,03,10,11,58,3.20
2012,03,10,11,59,4.80
2012,03,10,12,00,3.20
2012,03,10,12,01,1.60
2012,03,10,12,02,1.60
2012,03,10,12,03,3.20
2012,03,10,12,04,3.20
2012,03,10,12,05,4.80
2012,03,10,12,06,4.80
2012,03,10,12,07,6.40
2012,03,10,12,08,4.80
2012,03,10,12,09,4.80
2012,03,10,12,10,6.40
2012,03,10,12,11,6.40
2012,03,10,12,12,4.80
2012,03,10,12,13,4.80
2012,03,10,12,14,3.20
2012,03,10,12,15,3.20
2012,03,10,12,16,4.80
2012,03,10,12,17,4.80
2012,03,10,12,18,6.40
2012,03,10,12,19,9.60
2012,03,10,12,20,6.40
2012,03,10,12,21,12.90
2012,03,10,12,22,14.50
2012,03,10,12,23,9.60
2012,03,10,12,24,6.40
2012,03,10,12,25,8.10
2012,03,10,12,26,8.10
2012,03,10,12,27,1.60
2012,03,10,12,28,6.40
2012,03,10,12,29,3.20
2012,03,10,12,30,3.20
2012,03,10,12,31,16.10
2012,03,10,12,32,9.60
2012,03,10,12,33,9.60
2012,03,10,12,34,3.20
2012,03,10,12,35,3.20
2012,03,10,12,36,4.80
2012,03,10,12,37,3.20
2012,03,10,12,38,4.80
2012,03,10,12,39,3.20
2012,03,10,12,40,3.20
2012,03,10,12,41,6.40
2012,03,10,12,42,6.40
2012,03,10,12,43,1.60
2012,03,10,12,44,3.20
2012,03,10,12,45,1.60
2012,03,10,12,46,8.10
2012,03,10,12,47,16.10
2012,03,10,12,48,9.60
2012,03,10,12,49,11.30
2012,03,10,12,50,1.60
2012,03,10,12,51,4.80
2012,03,10,12,52,6.40
2012,03,10,12,53,24.20
2012,03,10,12,54,16.10
2012,03,10,12,55,8.10
2012,03,10,12,56,11.30
2012,03,10,12,57,16.10
2012,03,10,12,58,17.70
2012,03,10,12,59,11.30
2012,03,10,13,00,16.10
2012,03,10,13,01,16.10
2012,03,10,13,02,17.70
2012,03,10,13,03,16.10
2012,03,10,13,04,16.10
2012,03,10,13,05,16.10
2012,03,10,13,06,17.70
2012,03,10,13,07,17.70
2012,03,10,13,08,20.90
2012,03,10,13,09,17.70
2012,03,10,13,10,25.70
2012,03,10,13,11,19.30
2012,03,10,13,12,22.50
2012,03,10,13,13,17.70
2012,03,10,13,14,19.30
2012,03,10,13,15,19.30
2012,03,10,13,16,19.30
2012,03,10,13,17,20.90
2012,03,10,13,18,19.30
2012,03,10,13,19,17.70
2012,03,10,13,20,19.30
2012,03,10,13,21,9.60
2012,03,10,13,22,11.30
2012,03,10,13,23,16.10
2012,03,10,13,24,19.30
2012,03,10,13,25,20.90
2012,03,10,13,26,20.90
2012,03,10,13,27,20.90
2012,03,10,13,28,14.50
2012,03,10,13,29,19.30
2012,03,10,13,30,9.60
2012,03,10,13,31,11.30
2012,03,10,13,32,24.20
2012,03,10,13,33,16.10
2012,03,10,13,34,12.90
2012,03,10,13,35,17.70
2012,03,10,13,36,14.50
2012,03,10,13,37,16.10
2012,03,10,13,38,12.90
2012,03,10,13,39,9.60
2012,03,10,13,40,11.30
2012,03,10,13,41,17.70
2012,03,10,13,42,17.70
2012,03,10,13,43,12.90
2012,03,10,13,44,19.30
2012,03,10,13,45,9.60
2012,03,10,13,46,9.60
2012,03,10,13,47,6.40
2012,03,10,13,48,9.60
2012,03,10,13,49,9.60
2012,03,10,13,50,11.30
2012,03,10,13,51,14.50
2012,03,10,13,52,16.10
2012,03,10,13,53,14.50
2012,03,10,13,54,9.60
2012,03,10,13,55,9.60
2012,03,10,13,56,11.30
2012,03,10,13,57,12.90
2012,03,10,13,58,22.50
2012,03,10,13,59,16.10
2012,03,10,14,00,19.30
2012,03,10,14,01,14.50
2012,03,10,14,02,17.70
2012,03,10,14,03,22.50
2012,03,10,14,04,17.70
2012,03,10,14,05,17.70
2012,03,10,14,06,17.70
2012,03,10,14,07,20.90
2012,03,10,14,08,19.30
2012,03,10,14,09,20.90
2012,03,10,14,10,17.70
2012,03,10,14,11,19.30
2012,03,10,14,12,20.90
2012,03,10,14,13,14.50
2012,03,10,14,14,11.30
2012,03,10,14,15,16.10
2012,03,10,14,16,20.90
2012,03,10,14,17,16.10
2012,03,10,14,18,14.50
2012,03,10,14,19,19.30
2012,03,10,14,20,24.20
2012,03,10,14,21,20.90
2012,03,10,14,22,17.70
2012,03,10,14,23,14.50
2012,03,10,14,24,11.30
2012,03,10,14,25,9.60
2012,03,10,14,26,14.50
2012,03,10,14,27,11.30
2012,03,10,14,28,12.90
2012,03,10,14,29,11.30
2012,03,10,14,30,14.50
2012,03,10,14,31,11.30
2012,03,10,14,32,8.10
2012,03,10,14,33,8.10
2012,03,10,14,34,16.10
2012,03,10,14,35,14.50
2012,03,10,14,36,12.90
2012,03,10,14,37,8.10
2012,03,10,14,38,9.60
2012,03,10,14,39,11.30
2012,03,10,14,40,11.30
2012,03,10,14,41,14.50
2012,03,10,14,42,16.10
2012,03,10,14,43,20.90
2012,03,10,14,44,16.10
2012,03,10,14,45,14.50
2012,03,10,14,46,14.50
2012,03,10,14,47,14.50
2012,03,10,14,48,14.50
2012,03,10,14,49,12.90
2012,03,10,14,50,17.70
2012,03,10,14,51,17.70
2012,03,10,14,52,19.30
2012,03,10,14,53,17.70
2012,03,10,14,54,17.70
2012,03,10,14,55,20.90
2012,03,10,14,56,20.90
2012,03,10,14,57,20.90
2012,03,10,14,58,20.90
2012,03,10,14,59,22.50
2012,03,10,15,00,20.90
2012,03,10,15,01,19.30
2012,03,10,15,02,24.20
2012,03,10,15,03,19.30
2012,03,10,15,04,19.30
2012,03,10,15,05,14.50
2012,03,10,15,06,14.50
2012,03,10,15,07,20.90
2012,03,10,15,08,17.70
2012,03,10,15,09,24.20
2012,03,10,15,10,19.30
2012,03,10,15,11,17.70
2012,03,10,15,12,24.20
2012,03,10,15,13,19.30
2012,03,10,15,14,17.70
2012,03,10,15,15,17.70
2012,03,10,15,16,14.50
2012,03,10,15,17,17.70
2012,03,10,15,18,19.30
2012,03,10,15,19,17.70
2012,03,10,15,20,17.70
2012,03,10,15,21,19.30
2012,03,10,15,22,17.70
2012,03,10,15,23,19.30
2012,03,10,15,24,20.90
2012,03,10,15,25,19.30
2012,03,10,15,26,19.30
2012,03,10,15,27,19.30
2012,03,10,15,28,19.30
2012,03,10,15,29,17.70
2012,03,10,15,30,17.70
2012,03,10,15,31,19.30
2012,03,10,15,32,17.70
2012,03,10,15,33,17.70
2012,03,10,15,34,19.30
2012,03,10,15,35,16.10
2012,03,10,15,36,16.10
2012,03,10,15,37,16.10
2012,03,10,15,38,9.60
2012,03,10,15,39,14.50
2012,03,10,15,40,11.30
2012,03,10,15,41,17.70
2012,03,10,15,42,14.50
2012,03,10,15,43,20.90
2012,03,10,15,44,12.90
2012,03,10,15,45,19.30
2012,03,10,15,46,19.30
2012,03,10,15,47,14.50
2012,03,10,15,48,17.70
2012,03,10,15,49,16.10
2012,03,10,15,50,16.10
2012,03,10,15,51,19.30
2012,03,10,15,52,16.10
2012,03,10,15,53,17.70
2012,03,10,15,54,11.30
2012,03,10,15,55,14.50
2012,03,10,15,56,17.70
2012,03,10,15,57,17.70
2012,03,10,15,58,20.90
2012,03,10,15,59,16.10
2012,03,10,16,00,16.10
2012,03,10,16,01,16.10
2012,03,10,16,02,8.10
2012,03,10,16,03,14.50
2012,03,10,16,04,11.30
2012,03,10,16,05,9.60
2012,03,10,16,06,12.90
2012,03,10,16,07,17.70
2012,03,10,16,08,19.30
2012,03,10,16,09,16.10
2012,03,10,16,10,16.10
2012,03,10,16,11,11.30
2012,03,10,16,12,14.50
2012,03,10,16,13,19.30
2012,03,10,16,14,11.30
2012,03,10,16,15,6.40
2012,03,10,16,16,8.10
2012,03,10,16,17,8.10
2012,03,10,16,18,12.90
2012,03,10,16,19,9.60
2012,03,10,16,20,9.60
2012,03,10,16,21,14.50
2012,03,10,16,22,19.30
2012,03,10,16,23,8.10
2012,03,10,16,24,9.60
2012,03,10,16,25,14.50
2012,03,10,16,26,11.30
2012,03,10,16,27,11.30
2012,03,10,16,28,9.60
2012,03,10,16,29,9.60
2012,03,10,16,30,11.30
2012,03,10,16,31,6.40
2012,03,10,16,32,8.10
2012,03,10,16,33,4.80
2012,03,10,16,34,6.40
2012,03,10,16,35,6.40
2012,03,10,16,36,6.40
2012,03,10,16,37,12.90
2012,03,10,16,38,11.30
2012,03,10,16,39,11.30
2012,03,10,16,40,6.40
2012,03,10,16,41,6.40
2012,03,10,16,42,6.40
2012,03,10,16,43,6.40
2012,03,10,16,44,6.40
2012,03,10,16,45,8.10
2012,03,10,16,46,6.40
2012,03,10,16,47,8.10
2012,03,10,16,48,8.10
2012,03,10,16,49,8.10
2012,03,10,16,50,6.40
2012,03,10,16,51,8.10
2012,03,10,16,52,6.40
2012,03,10,16,53,4.80
2012,03,10,16,54,8.10
2012,03,10,16,55,6.40
2012,03,10,16,56,6.40
2012,03,10,16,57,4.80
2012,03,10,16,58,4.80
2012,03,10,16,59,4.80
2012,03,10,17,00,3.20
2012,03,10,17,01,4.80
2012,03,10,17,02,4.80
2012,03,10,17,03,3.20
2012,03,10,17,04,1.60
2012,03,10,17,05,4.80
2012,03,10,17,06,3.20
2012,03,10,17,07,1.60
2012,03,10,17,08,1.60
2012,03,10,17,09,1.60
2012,03,10,17,11,3.20
2012,03,10,17,12,1.60
2012,03,10,18,04,1.60
2012,03,10,18,05,1.60
2012,03,10,18,06,1.60
2012,03,10,18,09,1.60
2012,03,10,18,10,1.60
2012,03,10,18,12,3.20
2012,03,10,18,15,1.60
2012,03,10,18,16,1.60
2012,03,10,18,17,3.20
2012,03,10,18,18,1.60
2012,03,10,18,19,1.60
2012,03,10,18,20,1.60
2012,03,10,18,21,1.60
2012,03,10,18,22,1.60
2012,03,10,18,23,6.40
2012,03,10,18,24,6.40
2012,03,10,18,25,6.40
2012,03,10,18,26,4.80
2012,03,10,18,27,6.40
2012,03,10,18,28,6.40
2012,03,10,18,29,9.60
2012,03,10,18,30,6.40
2012,03,10,18,31,8.10
2012,03,10,18,32,8.10
2012,03,10,18,33,9.60
2012,03,10,18,34,8.10
2012,03,10,18,35,8.10
2012,03,10,18,36,9.60
2012,03,10,18,37,6.40
2012,03,10,18,38,6.40
2012,03,10,18,39,8.10
2012,03,10,18,40,8.10
2012,03,10,18,41,9.60
2012,03,10,18,42,11.30
2012,03,10,18,43,8.10
2012,03,10,18,44,9.60
2012,03,10,18,45,6.40
2012,03,10,18,46,9.60
2012,03,10,18,47,9.60
2012,03,10,18,48,6.40
2012,03,10,18,49,6.40
2012,03,10,18,50,6.40
2012,03,10,18,51,8.10
2012,03,10,18,52,6.40
2012,03,10,18,53,6.40
2012,03,10,18,54,4.80
2012,03,10,18,55,6.40
2012,03,10,18,56,8.10
2012,03,10,18,57,4.80
2012,03,10,18,58,3.20
2012,03,10,18,59,8.10
2012,03,10,19,00,6.40
2012,03,10,19,01,6.40
2012,03,10,19,02,8.10
2012,03,10,19,03,4.80
2012,03,10,19,04,4.80
2012,03,10,19,05,4.80
2012,03,10,19,06,4.80
2012,03,10,19,07,1.60
2012,03,10,19,08,6.40
2012,03,10,19,09,3.20
2012,03,10,19,10,3.20
2012,03,10,19,11,4.80
2012,03,10,19,12,4.80
2012,03,10,19,13,3.20
2012,03,10,19,14,3.20
2012,03,10,19,15,4.80
2012,03,10,19,16,6.40
2012,03,10,19,17,6.40
2012,03,10,19,18,6.40
2012,03,10,19,19,8.10
2012,03,10,19,20,11.30
2012,03,10,19,21,8.10
2012,03,10,19,22,6.40
2012,03,10,19,23,8.10
2012,03,10,19,24,9.60
2012,03,10,19,25,6.40
2012,03,10,19,26,6.40
2012,03,10,19,27,9.60
2012,03,10,19,28,8.10
2012,03,10,19,29,8.10
2012,03,10,19,30,6.40
2012,03,10,19,31,8.10
2012,03,10,19,32,6.40
2012,03,10,19,33,6.40
2012,03,10,19,34,6.40
2012,03,10,19,35,4.80
2012,03,10,19,36,4.80
2012,03,10,19,37,3.20
2012,03,10,19,38,3.20
2012,03,10,19,39,6.40
2012,03,10,19,40,6.40
2012,03,10,19,41,8.10
2012,03,10,19,42,8.10
2012,03,10,19,43,6.40
2012,03,10,19,44,6.40
2012,03,10,19,45,8.10
2012,03,10,19,46,8.10
2012,03,10,19,47,6.40
2012,03,10,19,48,6.40
2012,03,10,19,49,8.10
2012,03,10,19,50,9.60
2012,03,10,19,51,8.10
2012,03,10,19,52,9.60
2012,03,10,19,53,11.30
2012,03,10,19,54,11.30
2012,03,10,19,55,9.60
2012,03,10,19,56,11.30
2012,03,10,19,57,11.30
2012,03,10,19,58,16.10
2012,03,10,19,59,16.10
2012,03,10,20,00,20.90
2012,03,10,20,01,11.30
2012,03,10,20,02,9.60
2012,03,10,20,03,9.60
2012,03,10,20,04,8.10
2012,03,10,20,05,12.90
2012,03,10,20,06,19.30
2012,03,10,20,07,16.10
2012,03,10,20,08,12.90
2012,03,10,20,09,11.30
2012,03,10,20,10,6.40
2012,03,10,20,11,11.30
2012,03,10,20,12,9.60
2012,03,10,20,13,6.40
2012,03,10,20,14,14.50
2012,03,10,20,15,17.70
2012,03,10,20,16,17.70
2012,03,10,20,17,9.60
2012,03,10,20,18,8.10
2012,03,10,20,19,17.70
2012,03,10,20,20,16.10
2012,03,10,20,21,17.70
2012,03,10,20,22,17.70
2012,03,10,20,23,14.50
2012,03,10,20,24,16.10
2012,03,10,20,25,22.50
2012,03,10,20,26,9.60
2012,03,10,20,27,20.90
2012,03,10,20,28,22.50
2012,03,10,20,29,11.30
2012,03,10,20,30,17.70
2012,03,10,20,31,25.70
2012,03,10,20,32,17.70
2012,03,10,20,33,17.70
2012,03,10,20,34,16.10
2012,03,10,20,35,22.50
2012,03,10,20,36,24.20
2012,03,10,20,37,22.50
2012,03,10,20,38,20.90
2012,03,10,20,39,11.30
2012,03,10,20,40,14.50
2012,03,10,20,41,16.10
2012,03,10,20,42,20.90
2012,03,10,20,43,19.30
2012,03,10,20,44,27.40
2012,03,10,20,45,19.30
2012,03,10,20,46,24.20
2012,03,10,20,47,27.40
2012,03,10,20,48,17.70
2012,03,10,20,49,20.90
2012,03,10,20,50,24.20
2012,03,10,20,51,19.30
2012,03,10,20,52,20.90
2012,03,10,20,53,17.70
2012,03,10,20,54,11.30
2012,03,10,20,55,19.30
2012,03,10,20,56,17.70
2012,03,10,20,57,25.70
2012,03,10,20,58,16.10
2012,03,10,20,59,16.10
2012,03,10,21,00,8.10
2012,03,10,21,01,20.90
2012,03,10,21,02,19.30
2012,03,10,21,03,19.30
2012,03,10,21,04,25.70
2012,03,10,21,05,16.10
2012,03,10,21,06,19.30
2012,03,10,21,07,22.50
2012,03,10,21,08,20.90
2012,03,10,21,09,17.70
2012,03,10,21,10,19.30
2012,03,10,21,11,17.70
2012,03,10,21,12,20.90
2012,03,10,21,13,19.30
2012,03,10,21,14,24.20
2012,03,10,21,15,19.30
2012,03,10,21,16,20.90
2012,03,10,21,17,8.10
2012,03,10,21,18,16.10
2012,03,10,21,19,24.20
2012,03,10,21,20,20.90
2012,03,10,21,21,9.60
2012,03,10,21,22,20.90
2012,03,10,21,23,14.50
2012,03,10,21,24,19.30
2012,03,10,21,25,20.90
2012,03,10,21,26,22.50
2012,03,10,21,27,19.30
2012,03,10,21,28,14.50
2012,03,10,21,29,14.50
2012,03,10,21,30,11.30
2012,03,10,21,31,14.50
2012,03,10,21,32,14.50
2012,03,10,21,33,12.90
2012,03,10,21,34,11.30
2012,03,10,21,35,19.30
2012,03,10,21,36,16.10
2012,03,10,21,37,11.30
2012,03,10,21,38,16.10
2012,03,10,21,39,9.60
2012,03,10,21,40,16.10
2012,03,10,21,41,8.10
2012,03,10,21,42,9.60
2012,03,10,21,43,9.60
2012,03,10,21,44,9.60
2012,03,10,21,45,16.10
2012,03,10,21,46,11.30
2012,03,10,21,47,11.30
2012,03,10,21,48,8.10
2012,03,10,21,49,20.90
2012,03,10,21,50,20.90
2012,03,10,21,51,8.10
2012,03,10,21,52,14.50
2012,03,10,21,53,16.10
2012,03,10,21,54,8.10
2012,03,10,21,55,14.50
2012,03,10,21,56,19.30
2012,03,10,21,57,20.90
2012,03,10,21,58,17.70
2012,03,10,21,59,16.10
2012,03,10,22,00,16.10
2012,03,10,22,01,11.30
2012,03,10,22,02,16.10
2012,03,10,22,03,12.90
2012,03,10,22,04,16.10
2012,03,10,22,05,19.30
2012,03,10,22,06,19.30
2012,03,10,22,07,19.30
2012,03,10,22,08,17.70
2012,03,10,22,09,16.10
2012,03,10,22,10,22.50
2012,03,10,22,11,19.30
2012,03,10,22,12,19.30
2012,03,10,22,13,14.50
2012,03,10,22,14,12.90
2012,03,10,22,15,19.30
2012,03,10,22,16,14.50
2012,03,10,22,17,12.90
2012,03,10,22,18,14.50
2012,03,10,22,19,14.50
2012,03,10,22,20,17.70
2012,03,10,22,21,17.70
2012,03,10,22,22,19.30
2012,03,10,22,23,17.70
2012,03,10,22,24,17.70
2012,03,10,22,25,17.70
2012,03,10,22,26,20.90
2012,03,10,22,27,17.70
2012,03,10,22,28,20.90
2012,03,10,22,29,20.90
2012,03,10,22,30,19.30
2012,03,10,22,31,19.30
2012,03,10,22,32,17.70
2012,03,10,22,33,19.30
2012,03,10,22,34,14.50
2012,03,10,22,35,16.10
2012,03,10,22,36,14.50
2012,03,10,22,37,16.10
2012,03,10,22,38,12.90
2012,03,10,22,39,16.10
2012,03,10,22,40,17.70
2012,03,10,22,41,11.30
2012,03,10,22,42,11.30
2012,03,10,22,43,8.10
2012,03,10,22,44,16.10
2012,03,10,22,45,14.50
2012,03,10,22,46,8.10
2012,03,10,22,47,11.30
2012,03,10,22,48,9.60
2012,03,10,22,49,14.50
2012,03,10,22,50,20.90
2012,03,10,22,51,16.10
2012,03,10,22,52,11.30
2012,03,10,22,53,9.60
2012,03,10,22,54,11.30
2012,03,10,22,55,8.10
2012,03,10,22,56,19.30
2012,03,10,22,57,17.70
2012,03,10,22,58,11.30
2012,03,10,22,59,9.60
2012,03,10,23,00,17.70
2012,03,10,23,01,19.30
2012,03,10,23,02,16.10
2012,03,10,23,03,14.50
2012,03,10,23,04,14.50
2012,03,10,23,05,19.30
2012,03,10,23,06,9.60
2012,03,10,23,07,8.10
2012,03,10,23,08,9.60
2012,03,10,23,09,8.10
2012,03,10,23,10,9.60
2012,03,10,23,11,9.60
2012,03,10,23,12,14.50
2012,03,10,23,13,14.50
2012,03,10,23,14,11.30
2012,03,10,23,15,9.60
2012,03,10,23,16,8.10
2012,03,10,23,17,11.30
2012,03,10,23,18,22.50
2012,03,10,23,19,16.10
2012,03,10,23,20,9.60
2012,03,10,23,21,17.70
2012,03,10,23,22,17.70
2012,03,10,23,23,17.70
2012,03,10,23,24,14.50
2012,03,10,23,25,14.50
2012,03,10,23,26,14.50
2012,03,10,23,27,8.10
2012,03,10,23,28,9.60
2012,03,10,23,29,16.10
2012,03,10,23,30,11.30
2012,03,10,23,31,9.60
2012,03,10,23,32,11.30
2012,03,10,23,33,11.30
2012,03,10,23,34,9.60
2012,03,10,23,35,9.60
2012,03,10,23,36,14.50
2012,03,10,23,37,9.60
2012,03,10,23,38,11.30
2012,03,10,23,39,11.30
2012,03,10,23,40,11.30
2012,03,10,23,41,8.10
2012,03,10,23,42,9.60
2012,03,10,23,43,9.60
2012,03,10,23,44,14.50
2012,03,10,23,45,11.30
2012,03,10,23,46,9.60
2012,03,10,23,47,14.50
2012,03,10,23,48,12.90
2012,03,10,23,49,9.60
2012,03,10,23,50,14.50
2012,03,10,23,51,8.10
2012,03,10,23,52,8.10
2012,03,10,23,53,14.50
2012,03,10,23,54,9.60
2012,03,10,23,55,9.60
2012,03,10,23,56,16.10